Location: Hiram
(41.3130°N, 81.1440°W)
Time: 17:42:07
(UTC-04:00)

Daily predictions for brighter satellites

Satellite Brightness Start Highest point End
(mag) Time Altitude Azimuth Time Altitude Azimuth Time Altitude Azimuth
Meteor 2-10 Rocket 4.1 21:08:41 10° NNW 21:14:28 72° W 21:20:02 10° S
Cosmos 1844 Rocket 2.8 21:13:05 10° SSW 21:18:45 86° WNW 21:24:25 10° NNE
COSMOS 2406 4.0 21:13:30 10° NNW 21:19:04 54° WSW 21:24:35 10° S
Cosmos 1825 3.1 21:16:22 10° SSE 21:19:44 30° E 21:23:07 10° NNE
Cosmos 1939 Rocket 3.5 21:16:50 10° SE 21:20:25 37° ENE 21:24:06 10° N
GPS 2-05 Rocket1 3.9 21:17:16 10° WSW 21:20:38 32° S 21:23:56 10° ESE
Cosmos 2278 Rocket 2.4 21:15:34 10° S 21:20:58 48° ESE 21:26:24 10° NE
FENGYUN 3A 4.3 21:17:36 10° S 21:22:55 60° W 21:28:15 10° NNW
Cosmos 1674 Rocket 3.6 21:18:46 10° N 21:23:15 87° E 21:27:40 10° S
SL-27 R/B 3.5 21:20:01 10° NNW 21:23:32 48° WSW 21:26:59 10° S
Cosmos 2074 Rocket 4.4 21:20:25 10° SSW 21:26:40 72° W 21:32:56 10° N
Cosmos 1844 3.7 21:21:18 10° SSW 21:27:04 82° ESE 21:32:54 10° NNE
ALOS 3.4 21:23:34 10° S 21:28:02 46° W 21:32:33 10° NNW
Okean 2 Rocket 3.9 21:28:42 10° SSE 21:32:33 30° E 21:36:25 10° NNE
NOSS 5 (C) 4.4 21:30:32 10° SW 21:33:58 79° WNW 21:37:05 10° NNE
SJ-11-01 4.3 21:30:15 10° SSE 21:34:59 83° ENE 21:39:46 10° N
Envisat 3.2 21:32:33 10° SSE 21:37:30 57° ENE 21:42:29 10° N
USA 186 3.7 21:35:21 10° SSW 21:38:11 29° W 21:41:09 10° NNW
Cosmos 1782 Rocket 3.9 21:36:04 10° SSE 21:40:19 45° E 21:44:36 10° NNE
Cosmos 2082 Rocket 3.3 21:35:37 10° N 21:40:38 31° NE 21:44:56 13° ESE
Nadezhda 3 Rocket 4.0 21:37:50 10° N 21:44:13 76° E 21:50:34 10° SSE
OAO 3 Rocket 4.2 21:40:33 10° SW 21:44:45 28° SSE 21:48:02 14° ESE
Intercosmos 25 4.1 21:43:01 14° SE 21:45:11 24° E 21:47:50 10° NE
Sich 1 Rocket 4.0 21:41:17 10° SSW 21:45:50 70° W 21:50:25 10° N
Cosmos 2084 3.8 21:43:26 10° SW 21:47:14 60° NW 21:51:03 10° NNE
ERS-1 Rocket 3.2 21:44:21 10° S 21:49:22 75° WSW 21:54:26 10° NNW
Cosmos 1420 Rocket 4.1 21:44:22 10° S 21:49:27 55° ESE 21:54:33 10° NNE
APEX 3.8 21:46:20 10° S 21:50:03 46° ESE 21:54:52 10° NE
COSMOS 2487 2.5 21:48:05 10° NNW 21:51:43 89° ENE 21:54:41 15° SSE
DNEPR-1 R/B 4.0 21:46:46 10° NNW 21:52:10 64° NE 21:55:33 18° SE
Cosmos 1975 Rocket 3.1 21:50:42 10° N 21:54:59 60° E 21:58:28 15° SSE
Cosmos 1140 Rocket 3.5 21:50:50 10° NNW 21:55:58 70° ENE 22:00:06 16° SSE
Cosmos 2297 3.9 21:52:59 10° S 21:58:27 49° ESE 22:03:57 10° NE
EO 1 Delta rocket 4.1 21:56:39 10° N 22:02:38 88° E 22:07:31 10° S
Terra 3.8 22:01:13 11° E 22:03:19 15° ENE 22:05:54 10° NNE
Cosmos 1378 Rocket 3.8 22:00:01 10° NNW 22:04:18 67° W 22:08:35 10° S
Cosmos 1908 Rocket 4.3 22:00:33 10° SSW 22:04:51 54° W 22:09:14 10° N
ISS -1.8 22:03:23 10° W 22:06:27 38° NNW 22:09:33 10° NE
CZ-4B R/B 4.0 22:02:16 10° NNE 22:06:44 34° E 22:09:18 20° SSE
Cosmos 1606 3.9 22:03:51 10° NNW 22:07:36 43° W 22:11:18 10° SSW
MetOp-B 4.2 22:04:33 17° SSE 22:08:40 66° ENE 22:13:58 10° N
Cosmos 1452 Rocket 4.5 22:04:43 10° SW 22:09:50 51° WNW 22:14:59 10° N
Cosmos 1862 4.3 22:07:52 10° SSW 22:11:50 49° W 22:15:49 10° N
Cosmos 1238 Rocket 3.2 22:10:07 10° NNW 22:13:28 57° W 22:17:07 12° S
Nimbus 7 Rocket 4.4 22:07:39 10° NNE 22:13:38 89° W 22:19:38 10° SSW
Cosmos 2341 Rocket 4.1 22:07:20 10° S 22:13:38 80° W 22:19:55 10° N
H-2A R/B 3.5 22:11:12 17° ESE 22:13:45 24° ENE 22:17:56 10° NNE
BREEZE-M DEB (TANK) 4.0 22:12:26 10° NW 22:13:56 17° N 22:15:45 10° NE
Cosmos 1184 Rocket 3.8 22:14:26 10° SSW 22:17:40 48° WNW 22:20:57 10° N
SPOT 5 3.1 22:14:01 16° SSE 22:18:24 84° WSW 22:23:47 10° NNW
deb Chang Zheng 4 4.2 22:15:26 10° N 22:19:47 58° WNW 22:24:08 10° SSW
SL-8 Rocket 4.0 22:14:08 10° S 22:20:20 70° E 22:26:33 10° NNE
Abrixas 2.9 22:22:30 10° SW 22:24:56 42° S 22:24:56 42° S
USA 245 3.2 22:25:48 37° SE 22:27:02 63° ENE 22:31:17 10° N
Gbstr 26 Del rocket 4.4 22:23:46 10° NW 22:28:40 36° NNE 22:31:42 16° E
SPOT 1/Viking Rocket 3.6 22:26:12 26° SSE 22:29:09 70° ENE 22:34:22 10° N
Cosmos 1242 Rocket 3.0 22:25:44 10° NNW 22:29:21 60° W 22:31:23 24° S
Timation 2 Rocket 4.0 22:24:16 10° NNW 22:30:13 71° WSW 22:34:07 22° S
Lacrosse 5 3.2 22:31:52 22° E 22:31:52 22° E 22:34:30 10° ENE
Elektron 3 4.4 22:27:24 10° NW 22:30:19 61° SW 22:31:54 32° SSE
ARGOS 3.2 22:27:48 27° SE 22:30:42 63° ENE 22:36:00 10° N
H-2A R/B 3.3 22:29:41 12° SSW 22:33:22 37° W 22:37:17 10° NNW
YAOGAN 6 2.6 22:33:24 34° S 22:34:47 70° W 22:38:19 10° NNW
Cosmos 2151 Rocket 3.5 22:36:41 29° S 22:38:57 73° E 22:43:28 10° NNE
CZ-4C R/B 4.1 22:38:45 33° E 22:39:29 36° ENE 22:43:18 10° N
Cosmos 1850 Rocket 4.4 22:36:28 10° NNW 22:41:43 62° WSW 22:44:49 25° S
USA 229 DEB 3.8 22:39:21 10° NW 22:46:30 86° NE 22:50:15 32° SE
USA 229 3.8 22:39:27 10° NW 22:46:37 85° NE 22:50:21 32° SE
Cosmos 1300 Rocket 4.2 22:49:12 37° E 22:49:24 37° E 22:53:31 10° NNE
Cosmos 864 Rocket 4.4 22:45:50 22° S 22:49:55 80° E 22:56:06 10° N
NOSS 8 (E) 4.4 22:48:13 21° SW 22:50:23 85° NW 22:54:05 10° NE
ASTEX 1 4.4 22:47:01 10° NNE 22:51:20 29° E 22:51:33 29° E
Meteor 1-20 Rocket 4.2 22:50:15 35° SSE 22:52:28 60° E 22:57:54 10° NNE
Timation 1 Rocket 4.2 22:48:54 16° SSW 22:53:43 70° ESE 22:59:41 10° NNE
Okean 1 Rocket 3.7 22:56:16 38° E 22:56:17 38° E 23:00:25 10° NNE
Cosmos 1833 Rocket 2.6 22:53:30 10° NNW 22:59:09 83° WSW 23:01:16 40° SSE
Cosmos 2366 rocket 4.1 22:57:17 19° SSW 23:01:59 79° W 23:08:22 10° N
Cosmos 2278 Rocket 4.3 23:00:33 10° WSW 23:05:17 26° NW 23:10:02 10° N
Cosmos 1331 Rocket 3.8 23:05:38 41° S 23:07:25 75° ESE 23:12:35 10° NNE
CZ-4 R/B 3.8 23:04:47 10° N 23:09:27 75° WNW 23:11:23 35° SSW
Meteor 1-25 Rocket 4.3 23:06:57 27° SSW 23:10:14 82° W 23:16:05 10° N
Okean 1-7 Rocket 3.8 23:08:39 10° N 23:13:02 53° E 23:13:10 52° E
Okean 1 3.2 23:10:29 10° N 23:14:35 79° E 23:14:37 79° E
Cosmos 1110 Rocket 4.0 23:13:24 30° SSW 23:16:04 80° WNW 23:21:18 10° NNE
DMSP B5D2-2 4.0 23:14:30 10° NNE 23:19:44 69° ESE 23:20:36 57° SSE
SL-08 RB Rocket 4.5 23:21:37 36° SW 23:22:52 46° W 23:27:21 10° NNW
Cosmos 2082 Rocket 3.1 23:19:32 10° NW 23:24:48 40° WSW 23:26:48 30° SSW
Landsat 7 4.0 23:23:52 52° SSW 23:24:48 65° W 23:29:33 10° NNW
ATLAS 2AS CENTAUR R/B 4.5 23:18:15 10° NNW 23:25:08 29° NE 23:30:49 13° E
Cosmos 1812 3.1 23:23:31 10° NNW 23:27:16 57° W 23:27:16 57° W
OAO 3 Rocket 4.5 23:23:10 10° WSW 23:25:52 28° SW 23:25:52 28° SW
CARTOSAT-1 3.6 23:32:46 71° WSW 23:32:51 71° WSW 23:37:10 10° NNW
NOSS 3-1 (C) 4.1 23:26:22 10° NNW 23:33:56 72° NE 23:37:01 42° SE
Genesis I 4.2 23:37:08 40° NE 23:37:08 40° NE 23:39:46 10° NE
Cosmos 1000 Rocket 4.4 23:30:06 10° N 23:36:22 75° E 23:37:43 56° SSE
Meteor 2-4 Rocket 4.2 23:31:36 10° N 23:36:49 43° ENE 23:37:12 42° E
Terra 1.9 23:40:06 62° SW 23:40:30 65° WSW 23:45:15 10° NNW
BREEZE-M TANK 3.0 23:33:00 10° WNW 23:41:32 64° N 23:42:07 55° NE
Cosmos 2239 Rocket 4.4 23:40:41 57° SSE 23:41:51 70° E 23:48:08 10° NNE
USA 234 3.1 23:35:38 10° NE 23:42:07 62° SE 23:43:56 46° S
ISS -0.1 23:41:37 10° NW 23:43:34 15° N 23:45:31 10° NNE
Cosmos 1486 Rocket 3.9 23:38:51 10° NNW 23:44:11 78° WSW 23:44:40 71° SSW
Cosmos 1354 Rocket 4.2 23:39:34 10° NNW 23:44:46 57° ENE 23:45:03 56° E
Meteor 1-13 Rocket 4.3 23:42:23 10° NNW 23:48:22 80° W 23:49:25 62° SSW
H-2A R/B 2.8 23:51:51 40° SW 23:52:52 45° W 23:57:57 10° NNW
Cosmos 1315 Rocket 4.5 23:55:13 26° NE 23:55:13 26° NE 23:57:11 10° NNE
Spot 2 4.4 23:50:01 10° NNE 23:53:38 61° N 23:53:38 61° N
